Location: M�nchen Volkssternwarte
(48.1219°N, 11.6071°E)
Time: 11:07:15
(UTC+02:00)

ISS - Visible Passes

Search period start: 30 April 2017 00:00
Search period end: 10 May 2017 00:00
Orbit: 401 x 409 km, 51.6° (Epoch: 01 May)

Date Brightness Start Highest point End Pass type
(mag) Time Alt. Az. Time Alt. Az. Time Alt. Az.
06 May -1.1 04:46:24 10° SSE 04:47:25 11° SE 04:48:26 10° ESE visible
08 May -2.0 04:36:46 11° SSW 04:39:18 22° SE 04:41:55 10° E visible
09 May -1.5 03:46:35 13° SSE 03:47:21 14° SE 03:49:05 10° ESE visible
